Regional Weather Roundup
Issued by NWS

Home | Current Version | Previous Version | Graphics & Text | Print | Product List | Glossary Off
Versions: 1 2 3 4 5 6 7 8 9 10 11 12 13 14 15 16 17 18 19 20 21 22 23 24 25 26 27 28 29 30 31 32 33 34 35 36 37 38 39 40 41 42 43 44 45 46 47 48 49 50

000
ASUS43 KTOP 162059
RWRKS

WEATHER ROUNDUP FOR KANSAS
NATIONAL WEATHER SERVICE GOODLAND KS
300 PM CST SAT DEC 16 2017

NOTE:  "FAIR" INDICATES FEW OR NO CLOUDS BELOW 12,000 FEET WITH NO
SIGNIFICANT WEATHER AND/OR OBSTRUCTIONS TO VISIBILITY.

KSZ001>006-013>018-027>032-041>047-162200-
NORTHWEST KANSAS

CITY           SKY/WX    TMP DP  RH WIND       PRES   REMARKS
GOODLAND       SUNNY     53  18  25 NE18G28   29.73S
HAYS           SUNNY     60  23  24 S10       29.74S
HILL CITY      SUNNY     54  18  24 E13       29.76R
RUSSELL        SUNNY     62  22  21 S15       29.73F
$$

KSZ061>065-074>080-084>089-162200-
SOUTHWEST KANSAS

CITY           SKY/WX    TMP DP  RH WIND       PRES   REMARKS
DODGE CITY     SUNNY     62  18  18 S23G31    29.72S
GARDEN CITY    SUNNY     61  16  17 S22G29    29.69F
GREAT BEND     SUNNY     61  24  24 S15       29.75S
LIBERAL        SUNNY     62  16  16 S23G31    29.70F
$$

KSZ066>073-081>083-090>101-162200-
SOUTHEAST KANSAS

CITY           SKY/WX    TMP DP  RH WIND       PRES   REMARKS
CHANUTE        SUNNY     60  25  26 S21       29.90S
COFFEYVILLE    SUNNY     59  26  28 S16G24    29.94R
HUTCHINSON     SUNNY     60  25  26 S22G29    29.79S
MEDICINE LODGE   N/A     61  22  22 S17G29    29.78S
NEWTON         SUNNY     58  26  29 S26       29.82S
PARSONS        SUNNY     60  26  27 S17G25    29.93R
WICHITA INTL   MOSUNNY   62  26  25 S23G32    29.82S
WICHITA JABRA  SUNNY     59  26  28 S18G28    29.83R
WICHITA MCCONL SUNNY     60  24  25 SW26G35   29.83R
WINFIELD       SUNNY     60  25  26 S21G33    29.88S
$$

KSZ007>012-019>026-033>040-048>060-102>105-162200-
NORTHEAST KANSAS

CITY           SKY/WX    TMP DP  RH WIND       PRES   REMARKS
CONCORDIA      SUNNY     55  25  31 SE8       29.80R
EMPORIA        SUNNY     61  25  25 S18G28    29.84S
LAWRENCE       SUNNY     62  26  25 S15       29.85S
MANHATTAN      SUNNY     63  25  23 S12       29.80S
OLATHE IND     SUNNY     59  26  28 SW15G28   29.87S
OLATHE EXE     SUNNY     58  27  30 S14G23    29.87S
SALINA         SUNNY     61  27  27 S12G22    29.79R
TOPEKA BILLARD SUNNY     61  28  28 S14       29.84S
TOPEKA FORBES  SUNNY     62  28  27 S14       29.84S
$$




USA.gov is the U.S. government's official web portal to all federal, state and local government web resources and services.